Wind_Speed
49 52 55 58 54 62 67 57 53 46 37 34 32 29 24 19 20 22 27 36 42 46 47 49 52 53 58 63 71 75 72 69 67 64 65 60 59 65 69 77 72 68 68 72
46 53 56 55 54 61 62 50 46 41 36 32 28 27 24 23 17 16 22 22 28 32 37 40 46 49 49 52 55 62 68 70 69 67 67 62 58 63 65 74 76 70 70 72
45 54 57 50 53 59 58 48 40 39 34 31 28 25 25 25 20 14 10 12 19 25 29 31 33 38 42 45 46 51 57 61 64 64 64 60 58 59 63 72 76 69 67 70
46 54 54 49 54 59 56 45 38 36 33 29 29 24 19 24 22 15 5 8 11 23 25 25 27 30 34 37 40 44 48 54 58 58 54 49 50 57 61 70 75 70 65 64
45 52 52 48 55 59 58 51 37 30 30 25 25 20 18 20 20 11 9 3 10 15 20 23 25 27 29 31 33 36 42 48 52 50 43 39 45 52 58 66 70 68 65 59
43 49 50 50 54 58 62 60 41 31 24 23 16 16 16 13 14 11 8 5 7 14 18 19 21 22 23 24 27 31 36 41 45 43 36 35 41 47 53 58 64 65 61 60
41 47 50 48 52 58 64 64 50 36 30 22 19 18 15 10 9 13 10 5 5 7 13 18 18 16 17 21 24 30 34 36 37 38 34 32 34 39 39 44 53 58 57 54
39 46 47 47 50 59 64 64 59 44 30 30 20 19 14 7 3 10 6 4 1 8 12 12 14 15 16 18 20 24 28 31 32 32 26 27 31 27 31 38 33 50 52 47
36 42 43 44 47 56 60 62 62 55 42 28 31 21 15 12 10 8 8 4 4 6 15 13 15 17 18 18 19 21 25 29 29 29 25 23 24 25 24 26 35 37 40 39
33 39 39 40 44 52 55 58 62 56 48 42 32 25 29 20 16 10 4 5 5 8 12 16 17 19 20 20 20 19 18 22 23 24 22 22 23 26 19 19 30 33 30 32
29 34 36 36 40 46 47 52 57 58 49 43 40 42 36 29 31 22 10 3 2 6 10 17 19 20 20 20 22 22 22 22 20 21 21 21 27 28 21 23 17 22 25 27
27 29 33 31 37 39 43 44 50 53 53 47 43 36 38 42 44 35 34 18 3 5 6 13 18 20 19 20 22 22 22 23 22 23 22 26 27 29 21 19 21 24 22 26
27 27 32 30 31 33 36 41 43 46 48 54 54 47 37 29 32 32 34 32 27 13 6 8 14 17 19 20 24 26 25 23 22 25 26 20 23 21 14 25 19 36 19 18
25 24 29 32 29 28 31 34 39 38 42 46 50 51 54 50 37 26 18 16 19 22 18 12 11 9 17 24 31 36 35 25 29 24 24 33 27 27 20 19 23 23 21 24
24 22 25 28 25 24 24 27 33 37 33 36 41 42 42 47 46 46 45 37 24 15 13 14 15 26 20 23 32 52 38 36 39 27 18 29 25 22 23 26 23 17 17 19
25 23 22 22 20 22 19 20 24 30 30 33 36 39 37 38 40 43 45 45 47 50 47 44 44 37 31 36 42 43 42 35 26 30 23 27 23 34 24 26 25 24 25 26
26 24 22 13 17 18 15 16 17 20 25 27 30 34 35 35 35 35 36 40 44 47 47 49 48 45 46 43 39 42 32 30 34 33 24 32 33 30 26 22 20 22 17 13
25 21 18 16 17 18 14 11 14 13 18 22 21 28 32 31 29 27 32 35 36 38 41 44 45 46 42 40 40 40 35 31 32 32 33 32 22 17 17 13 11 9 9 11
23 21 15 14 16 18 16 7 10 11 10 11 14 12 22 22 21 21 25 28 29 31 32 34 35 36 38 39 38 37 36 34 32 30 29 24 20 20 16 12 10 7 5 5
20 21 14 14 16 21 17 9 6 10 13 11 9 12 12 12 17 22 27 29 33 36 38 37 35 36 39 40 40 40 37 35 33 30 28 23 19 17 14 10 7 4 3 4
16 19 13 10 14 19 21 10 6 9 11 14 17 12 11 12 16 19 25 28 34 40 41 41 40 38 35 33 33 32 30 29 26 23 19 16 13 11 7 3 2 5 7 9
13 17 14 7 10 16 18 17 7 8 12 14 14 15 14 15 16 17 25 33 35 35 36 36 34 32 31 30 29 29 26 24 22 18 14 11 9 6 5 5 7 10 13 14
10 14 14 5 7 11 15 17 17 11 7 8 10 12 12 13 20 26 27 31 32 32 31 29 26 25 25 24 22 21 20 20 19 16 13 9 7 8 9 12 14 16 16 17
8 10 12 5 2 6 8 12 14 16 17 14 10 11 17 21 21 24 26 26 26 24 22 21 19 18 17 16 16 15 14 13 13 14 14 14 11 11 13 14 16 18 19 20
7 8 11 7 6 2 3 6 8 10 13 15 17 17 18 18 21 21 20 20 17 15 14 13 12 11 11 11 12 13 14 15 16 17 18 19 16 13 14 15 17 19 21 22
10 7 8 11 7 8 4 2 3 4 8 10 13 17 18 18 17 16 14 12 9 6 4 3 4 7 9 11 14 17 19 21 22 23 24 22 17 13 14 16 20 23 25 27
Wind_Direction
340 343 337 334 330 337 342 346 340 334 326 327 338 343 351 318 287 261 252 248 243 243 240 235 232 232 232 233 233 232 233 233 236 237 240 239 232 232 228 224 228 226 226 227
342 342 341 335 339 344 346 345 345 334 325 328 334 340 340 352 349 279 254 240 235 236 238 233 230 229 231 233 232 233 232 231 232 234 237 240 234 231 230 226 224 227 229 232
345 344 340 338 342 348 348 351 343 341 324 330 327 338 339 341 352 338 285 255 226 229 231 233 228 228 229 230 230 231 229 228 230 229 231 236 237 231 232 226 224 225 229 232
347 346 342 345 347 353 353 352 353 345 324 334 330 331 336 341 357 359 323 230 239 232 227 226 229 226 226 226 226 227 225 223 225 228 231 233 235 235 233 226 224 222 226 230
350 346 347 349 354 356 359 356 357 354 336 337 335 329 338 348 352 347 343 253 221 221 219 217 223 224 224 223 222 222 222 222 221 222 222 224 229 232 230 226 223 223 224 228
350 345 352 357 357 359 3 3 3 7 359 342 340 339 357 342 344 346 340 312 247 220 214 213 219 220 219 221 221 216 215 217 215 212 216 226 228 228 225 224 221 224 224 226
349 348 354 360 360 359 5 6 10 14 23 360 336 330 338 0 336 336 336 346 249 229 218 210 210 210 212 211 210 212 207 208 207 208 217 227 226 223 221 224 222 224 226 226
352 347 355 1 2 5 4 7 11 14 13 27 357 336 355 9 11 312 346 334 176 198 182 182 188 193 200 195 196 199 204 203 202 207 213 214 206 209 216 218 216 223 224 224
353 350 357 1 4 9 9 10 12 14 17 17 33 31 19 44 34 9 11 349 197 177 177 177 180 180 181 180 179 182 190 196 199 202 201 203 193 192 193 194 210 217 221 221
352 349 358 360 7 14 13 14 12 17 13 20 22 43 54 47 43 41 358 39 203 186 188 187 184 180 183 178 176 178 178 186 195 198 189 193 180 156 157 182 211 197 212 218
355 349 357 359 6 16 14 19 20 24 23 19 18 22 28 52 60 48 52 175 125 209 206 196 193 187 184 178 177 173 171 171 167 183 180 178 163 156 174 170 176 196 206 214
354 351 358 359 4 18 17 21 30 30 30 32 30 30 22 21 29 28 48 53 172 192 211 219 209 203 198 192 179 170 164 165 162 169 167 157 159 145 142 185 195 227 205 214
352 352 354 358 3 13 16 19 24 32 42 44 44 46 43 32 31 38 32 22 48 65 116 202 219 217 219 211 188 167 157 150 151 158 152 156 147 180 168 187 171 181 187 204
349 347 349 352 356 5 16 16 18 24 37 42 44 48 52 53 51 40 43 44 60 49 52 48 89 128 182 168 169 159 150 146 145 146 172 178 150 157 175 159 167 178 188 199
347 343 342 343 351 4 9 15 16 21 21 23 29 40 41 47 59 65 69 69 76 67 89 115 113 125 113 161 164 148 152 155 146 148 148 160 156 156 171 152 158 168 184 200
347 346 340 339 350 358 7 7 16 19 18 17 23 31 40 48 60 66 74 74 75 76 82 96 101 116 114 114 143 149 144 142 161 164 156 160 183 168 179 181 163 177 190 197
353 351 348 349 352 1 357 359 16 25 18 19 18 24 27 38 56 66 70 76 77 78 80 84 92 96 100 112 126 136 134 139 147 149 164 156 154 149 148 160 183 195 202 196
354 357 351 343 353 353 3 353 0 23 29 15 27 25 18 21 33 50 68 69 70 75 79 84 86 91 98 104 109 116 123 125 134 149 151 150 160 180 182 198 162 150 183 195
354 354 353 343 359 355 355 357 348 16 19 20 18 31 13 15 37 59 62 67 77 76 76 76 78 87 96 100 100 99 97 95 98 100 100 108 93 94 109 119 126 151 179 205
348 350 350 349 358 9 356 354 18 16 16 13 18 0 28 34 51 64 76 75 79 83 84 85 84 83 85 88 91 94 96 97 96 95 95 101 112 119 121 121 127 160 214 253
345 345 347 356 4 14 14 10 39 31 38 33 34 37 37 56 63 71 80 84 86 87 86 86 88 89 87 86 85 82 79 80 83 86 87 89 87 86 89 102 217 260 283 301
342 345 350 353 9 16 24 29 39 46 35 39 44 56 67 68 72 71 90 94 92 90 90 89 89 89 87 82 78 77 75 73 70 66 61 58 50 32 356 317 295 291 293 294
339 338 344 338 22 26 25 45 54 62 59 51 53 72 72 66 99 105 103 101 99 98 96 95 91 86 83 79 76 73 68 61 56 52 43 32 8 344 327 311 303 298 298 299
321 328 334 325 350 50 39 37 50 65 76 86 91 88 103 107 108 110 112 110 106 103 99 92 85 75 68 59 51 45 39 34 26 18 11 3 341 314 306 307 307 298 291 287
294 307 318 319 250 238 79 39 53 72 81 92 104 112 117 118 120 120 118 112 108 104 96 87 74 60 44 30 16 5 357 350 345 340 337 333 325 306 290 292 304 302 300 301
266 279 289 310 286 251 228 170 87 90 104 107 115 130 134 139 139 140 140 143 138 128 100 47 9 351 340 332 328 327 327 326 323 322 322 320 312 296 287 294 308 308 307 307
Height
5665 5655 5645 5631 5618 5604 5588 5571 5556 5541 5529 5520 5509 5498 5489 5482 5479 5479 5480 5485 5489 5495 5502 5509 5517 5524 5530 5538 5548 5559 5569 5579 5588 5596 5602 5611 5619 5626 5635 5646 5655 5667 5673 5678
5661 5649 5638 5625 5612 5596 5580 5563 5548 5534 5523 5515 5506 5497 5489 5482 5477 5473 5473 5477 5482 5486 5492 5499 5506 5513 5520 5528 5537 5546 5556 5566 5574 5583 5592 5600 5608 5616 5623 5634 5646 5657 5666 5672
5655 5645 5632 5621 5608 5594 5573 5556 5541 5529 5519 5510 5503 5495 5487 5481 5477 5471 5471 5473 5476 5481 5486 5492 5498 5504 5511 5519 5527 5536 5545 5555 5563 5573 5582 5590 5597 5605 5611 5620 5632 5645 5657 5666
5651 5641 5629 5616 5603 5587 5568 5551 5537 5524 5514 5507 5500 5494 5486 5481 5477 5473 5471 5472 5475 5477 5481 5486 5492 5498 5503 5511 5520 5526 5534 5543 5553 5565 5574 5581 5588 5595 5599 5611 5624 5636 5647 5657
5650 5639 5628 5614 5599 5582 5567 5550 5535 5523 5512 5506 5498 5492 5486 5481 5479 5476 5474 5472 5472 5474 5478 5484 5489 5494 5499 5506 5512 5518 5525 5534 5546 5556 5565 5573 5579 5585 5594 5604 5616 5628 5640 5650
5648 5638 5626 5612 5596 5581 5567 5551 5534 5524 5513 5505 5499 5493 5488 5483 5480 5478 5476 5474 5474 5474 5478 5482 5487 5493 5498 5502 5508 5514 5520 5528 5539 5550 5559 5566 5572 5579 5586 5597 5609 5621 5632 5643
5647 5637 5625 5613 5598 5582 5566 5549 5535 5523 5514 5506 5499 5494 5489 5484 5481 5478 5476 5476 5476 5476 5478 5482 5486 5491 5495 5500 5505 5511 5518 5527 5537 5547 5555 5561 5567 5574 5583 5592 5604 5616 5627 5636
5645 5636 5625 5611 5597 5583 5569 5552 5534 5524 5517 5510 5499 5493 5489 5484 5481 5479 5478 5478 5477 5478 5480 5483 5487 5491 5495 5500 5505 5511 5519 5527 5536 5545 5552 5558 5565 5573 5581 5590 5604 5611 5622 5630
5645 5637 5625 5613 5600 5590 5574 5558 5543 5528 5517 5510 5503 5495 5490 5484 5481 5481 5479 5478 5479 5480 5482 5486 5489 5493 5498 5503 5507 5513 5519 5527 5535 5545 5551 5558 5564 5573 5580 5591 5599 5612 5616 5626
5644 5637 5625 5614 5604 5595 5582 5568 5550 5537 5522 5513 5504 5498 5493 5486 5483 5482 5481 5481 5482 5484 5485 5488 5492 5496 5501 5505 5510 5516 5522 5529 5537 5545 5552 5560 5567 5572 5579 5588 5597 5607 5613 5622
5644 5638 5628 5616 5606 5599 5589 5576 5560 5547 5532 5519 5509 5503 5494 5490 5487 5484 5483 5483 5484 5486 5488 5491 5494 5498 5502 5507 5512 5518 5524 5531 5538 5547 5554 5561 5566 5570 5575 5582 5594 5603 5610 5618
5642 5636 5629 5619 5609 5604 5594 5585 5573 5559 5546 5531 5519 5512 5503 5495 5489 5485 5486 5485 5485 5487 5489 5492 5495 5499 5503 5508 5513 5519 5526 5533 5541 5549 5555 5562 5564 5568 5576 5587 5590 5600 5609 5615
5641 5634 5627 5620 5614 5606 5599 5591 5583 5572 5560 5548 5535 5525 5513 5506 5499 5496 5490 5487 5487 5487 5489 5491 5493 5496 5501 5506 5513 5521 5528 5536 5543 5550 5557 5563 5561 5570 5578 5578 5588 5596 5605 5610
5640 5635 5628 5621 5614 5608 5603 5596 5590 5583 5573 5563 5552 5542 5530 5520 5512 5506 5502 5498 5495 5492 5490 5489 5491 5494 5496 5503 5511 5521 5530 5538 5546 5551 5555 5561 5562 5572 5576 5583 5589 5597 5602 5608
5640 5635 5629 5622 5616 5610 5604 5600 5594 5588 5581 5572 5566 5556 5547 5538 5529 5521 5515 5509 5503 5499 5497 5496 5498 5499 5500 5502 5513 5521 5531 5541 5549 5554 5556 5561 5567 5575 5582 5584 5590 5595 5601 5605
5639 5635 5629 5623 5617 5611 5606 5603 5598 5594 5588 5581 5575 5568 5561 5552 5546 5539 5532 5526 5521 5515 5509 5505 5506 5508 5511 5515 5524 5534 5540 5548 5553 5557 5560 5565 5571 5576 5579 5584 5588 5595 5599 5602
5638 5634 5629 5623 5617 5612 5610 5604 5601 5597 5593 5589 5582 5576 5570 5565 5558 5553 5547 5541 5536 5532 5527 5523 5521 5520 5522 5527 5534 5541 5547 5552 5557 5562 5568 5571 5575 5578 5580 5586 5592 5595 5597 5598
5637 5633 5629 5623 5617 5613 5611 5605 5602 5599 5596 5593 5589 5582 5576 5572 5569 5565 5559 5555 5551 5547 5542 5538 5538 5537 5540 5543 5546 5551 5556 5561 5564 5569 5573 5574 5576 5580 5585 5589 5591 5595 5599 5602
5637 5632 5628 5625 5619 5614 5609 5606 5603 5601 5599 5596 5593 5590 5585 5579 5576 5572 5568 5565 5563 5561 5559 5557 5555 5554 5555 5557 5559 5562 5565 5567 5570 5574 5576 5579 5582 5586 5591 5595 5597 5600 5603 5604
5637 5632 5628 5625 5621 5615 5608 5605 5603 5602 5600 5599 5596 5593 5591 5587 5583 5581 5577 5575 5572 5571 5570 5570 5569 5571 5573 5577 5578 5578 5580 5581 5582 5583 5585 5590 5594 5596 5597 5599 5601 5603 5605 5604
5636 5633 5629 5625 5622 5618 5611 5605 5604 5604 5605 5600 5599 5597 5596 5594 5592 5589 5587 5585 5582 5581 5581 5580 5582 5585 5587 5588 5587 5586 5588 5589 5591 5594 5597 5598 5598 5598 5599 5601 5602 5603 5602 5599
5635 5632 5629 5626 5623 5621 5615 5609 5606 5606 5604 5603 5602 5601 5600 5600 5598 5597 5596 5595 5593 5592 5591 5592 5593 5595 5596 5597 5597 5596 5597 5597 5596 5597 5598 5598 5599 5600 5601 5601 5600 5599 5598 5596
5634 5632 5629 5627 5625 5623 5620 5615 5610 5607 5606 5606 5605 5605 5605 5604 5604 5604 5602 5602 5601 5601 5601 5601 5602 5602 5602 5602 5601 5601 5600 5600 5600 5600 5599 5599 5599 5599 5599 5598 5597 5595 5592 5590
5631 5630 5628 5627 5625 5624 5622 5620 5616 5612 5610 5608 5608 5608 5608 5609 5610 5610 5609 5609 5609 5608 5608 5608 5608 5608 5607 5607 5606 5605 5605 5604 5604 5603 5602 5601 5600 5599 5597 5595 5593 5591 5589 5587
5629 5628 5627 5625 5624 5623 5622 5621 5620 5617 5615 5614 5613 5612 5613 5614 5614 5615 5615 5614 5614 5614 5613 5613 5612 5612 5611 5610 5609 5608 5607 5606 5604 5603 5601 5599 5597 5596 5594 5593 5590 5587 5584 5581
5625 5625 5625 5624 5623 5623 5623 5621 5620 5620 5619 5618 5617 5617 5617 5618 5617 5617 5617 5617 5617 5616 5616 5615 5614 5613 5611 5610 5609 5608 5606 5604 5602 5600 5598 5595 5593 5591 5589 5588 5585 5581 5577 5573